Weather History for Lake Charles Regional, LA

Change the Weather History Date:

Tuesday, April 22, 2014

  Actual Average Record
Temperature  
Mean Temperature 74 °F 70 °F  
Max Temperature 85 °F 79 °F 90 °F (1911)
Min Temperature 63 °F 60 °F 42 °F (1931)
Degree Days  
Heating Degree Days 0 1  
Month to date heating degree days 49 41  
Since 1 July heating degree days 1950 1485  
Cooling Degree Days 9 5  
Month to date cooling degree days 67 87  
Year to date cooling degree days 95 159  
Growing Degree Days 24 (Base 50)    
Moisture  
Dew Point 64 °F    
Average Humidity 70    
Maximum Humidity 100    
Minimum Humidity 40    
Precipitation  
Precipitation 0.00 in 0.11 in 4.12 in (1926)
Month to date precipitation 0.81 2.39  
Year to date precipitation 9.67 14.74  
Snow  
Snow 0.00 in 0.00 in 0.00 in ()
Month to date snowfall 0.0 0.0  
Since 1 July snowfall 0.1 0.1  
Snow Depth 0.00 in    
Sea Level Pressure  
Sea Level Pressure 29.98 in    
Wind  
Wind Speed 5 mph (WSW)    
Max Wind Speed 13 mph    
Max Gust Speed 17 mph    
Visibility 8 miles    
Events Fog    
T = Trace of Precipitation, MM = Missing Value Source: NWS Daily Summary

Daily Weather History Graph

Daily Weather History Graph

Search for Another Location

Airport:

Trip Planner

Search our weather history database for the weather conditions in past years. The results will help you decide how hot, cold, wet, or windy it might be!

Date:

Astronomy

Apr. 22, 2014 Rise Set
Actual Time 6:38 AM CDT 7:44 PM CDT
Civil Twilight 6:13 AM CDT 8:09 PM CDT
Nautical Twilight 5:44 AM CDT 8:39 PM CDT
Astronomical Twilight 5:13 AM CDT 9:09 PM CDT
Moon 1:57 AM CDT 1:15 PM CDT
Length of Visible Light 13h 56m
Length of Day
13h 06m
Last Quarter, 46% of the Moon is Illuminated
Apr 22
Last Quarter
Apr 29
New
May 6
First Quarter
May 14
Full
May 21
Last Quarter

Hourly Weather History & Observations

Time (CDT) Temp. Heat Index Dew Point Humidity Pressure Visibility Wind Dir Wind Speed Gust Speed Precip Events Conditions
12:53 AM 66.9 °F - 64.0 °F 90% 30.01 in 10.0 mi SW 8.1 mph - N/A   Clear
1:53 AM 66.9 °F - 64.0 °F 90% 30.01 in 10.0 mi SW 6.9 mph - N/A   Clear
2:25 AM 66.9 °F - 64.9 °F 93% 29.97 in 10.0 mi SW 4.6 mph - N/A   Mostly Cloudy
2:36 AM 66.9 °F - 64.0 °F 90% 29.97 in 10.0 mi SW 4.6 mph - N/A   Scattered Clouds
2:53 AM 66.0 °F - 64.0 °F 93% 29.98 in 10.0 mi South 4.6 mph - N/A   Clear
3:41 AM 66.0 °F - 64.9 °F 96% 29.95 in 9.0 mi SSW 6.9 mph - N/A   Mostly Cloudy
3:53 AM 66.9 °F - 64.9 °F 93% 29.99 in 10.0 mi West 4.6 mph - N/A   Mostly Cloudy
4:33 AM 68.0 °F - 64.9 °F 90% 29.98 in 10.0 mi WSW 8.1 mph - N/A   Overcast
4:40 AM 68.0 °F - 64.9 °F 90% 29.98 in 10.0 mi West 8.1 mph - N/A   Overcast
4:53 AM 68.0 °F - 64.9 °F 90% 30.01 in 10.0 mi WSW 8.1 mph - N/A   Overcast
5:50 AM 68.0 °F - 66.2 °F 94% 29.99 in 10.0 mi West 8.1 mph - N/A   Overcast
5:53 AM 68.0 °F - 66.0 °F 93% 30.01 in 10.0 mi West 6.9 mph - N/A   Overcast
6:53 AM 69.1 °F - 66.0 °F 90% 30.01 in 10.0 mi WSW 8.1 mph - N/A   Overcast
7:24 AM 69.1 °F - 66.0 °F 90% 30.00 in 10.0 mi West 6.9 mph - N/A   Overcast
7:53 AM 69.1 °F - 66.0 °F 90% 30.02 in 6.0 mi West 5.8 mph - N/A   Overcast
8:17 AM 69.1 °F - 66.0 °F 90% 29.99 in 6.0 mi West 5.8 mph - N/A   Overcast
8:36 AM 71.1 °F - 66.0 °F 84% 29.99 in 10.0 mi West 10.4 mph - N/A   Mostly Cloudy
8:53 AM 71.1 °F - 66.0 °F 84% 30.01 in 9.0 mi West 6.9 mph - N/A   Mostly Cloudy
9:39 AM 73.0 °F - 64.9 °F 76% 29.99 in 9.0 mi WSW 9.2 mph - N/A   Scattered Clouds
9:53 AM 73.0 °F - 64.9 °F 76% 30.01 in 9.0 mi West 10.4 mph 16.1 mph N/A   Mostly Cloudy
10:20 AM 73.9 °F - 66.0 °F 76% 29.99 in 8.0 mi West 10.4 mph - N/A   Overcast
10:53 AM 75.0 °F - 64.9 °F 71% 30.01 in 9.0 mi WSW 9.2 mph - N/A   Overcast
11:53 AM 77.0 °F - 63.0 °F 62% 30.01 in 10.0 mi West 6.9 mph - N/A   Mostly Cloudy
12:53 PM 81.0 °F 82.5 °F 64.0 °F 56% 29.99 in 10.0 mi North - - N/A   Mostly Cloudy
1:53 PM 82.0 °F 82.7 °F 61.0 °F 49% 29.97 in 10.0 mi NNE 8.1 mph - N/A   Scattered Clouds
2:53 PM 82.9 °F 83.2 °F 60.1 °F 46% 29.96 in 8.0 mi Calm Calm - N/A   Partly Cloudy
3:53 PM 82.9 °F 83.2 °F 60.1 °F 46% 29.94 in 10.0 mi North 6.9 mph - N/A   Mostly Cloudy
4:53 PM 82.9 °F 82.8 °F 59.0 °F 44% 29.93 in 10.0 mi NNE 4.6 mph - N/A   Clear
5:53 PM 84.0 °F 83.5 °F 57.9 °F 41% 29.92 in 10.0 mi NNE 9.2 mph - N/A   Clear
6:53 PM 81.0 °F 81.6 °F 60.1 °F 49% 29.91 in 10.0 mi North 3.5 mph - N/A   Clear
7:53 PM 73.0 °F - 68.0 °F 84% 29.92 in 8.0 mi South 5.8 mph - N/A   Clear
8:53 PM 71.1 °F - 68.0 °F 90% 29.95 in 6.0 mi Variable 3.5 mph - N/A   Clear
9:53 PM 69.1 °F - 66.0 °F 90% 29.96 in 7.0 mi Calm Calm - N/A   Clear
10:53 PM 64.9 °F - 64.0 °F 97% 29.97 in 3.0 mi Calm Calm - N/A   Clear
11:02 PM 64.9 °F - 64.0 °F 97% 29.94 in 2.0 mi Calm Calm - N/A   Clear
11:31 PM 64.9 °F - 64.0 °F 97% 29.94 in 1.0 mi Calm Calm - N/A   Clear
11:38 PM 64.0 °F - 63.0 °F 96% 29.94 in 0.5 mi Calm Calm - N/A Fog Fog
11:53 PM 64.9 °F - 64.0 °F 97% 29.96 in 1.0 mi Calm Calm - N/A   Clear
11:56 PM 64.9 °F - 63.0 °F 93% 29.94 in 3.0 mi Calm Calm - N/A   Clear